Terminal Aerodrome Forecast
Issued by NWS Hastings, NE

Home | Current Version | Previous Version | Text Only | Print | Product List | Glossary On
Versions: 1 2 3 4 5 6 7 8 9 10 11 12 13 14 15 16 17 18 19 20
000
FTUS45 KGID 311148 AAA
TAFEAR
TAF AMD
KEAR 311148Z 3112/0112 17005KT 1/4SM BCFG BKN002
     FM311400 17009KT P6SM FEW250
     FM010100 15009KT P6SM FEW250
      AMD LTD TO CLD VIS AND WIND=

USA.gov is the U.S. government's official web portal to all federal, state and local government web resources and services.